[[{"header":{"parameterUnit":"m.s-1","parameterCategory":1,"la1":30.2991,"la2":30.254,"lo1":-89.0895,"lo2":-89.0444,"dy":0.0017,"dx":0.0017,"nx":28,"ny":28,"refTime":"2024-12-31T03:00:00:Z","depth":0,"parameterNumber":2,"parameterNumberName":"U-component_of_WINDS"},"data":[0,0,0,0,0,0,0,0,0,0,0,0,0,0,0,0,0,0,0,0,0,0,0,0,0,0,0,0,0,0,0,0,0,0,0,0,0,0,0,0,0,0,0,0,0,0,0,0,0,0,0,0,0,0,0,0,0,0,-0.6489,-0.6489,0,-0.645,-0.6449,-0.6449,-0.6409,-0.6409,-0.6408,-0.6408,-0.6367,-0.6367,-0.6366,0,0,0,0,0,0,0,0,0,0,0,0,0,-0.6531,-0.653,-0.649,-0.6489,-0.6489,-0.645,-0.6449,-0.6449,-0.6409,-0.6409,-0.6408,-0.6407,-0.6368,-0.6367,-0.6366,0,0,0,0,0,0,0,0,0,0,0,0,0,-0.6504,-0.653,-0.649,-0.6464,-0.6461,-0.645,-0.6449,-0.6449,-0.6409,-0.6409,-0.6408,-0.6407,-0.6368,-0.6367,-0.6366,-0.6377,0,0,-0.6364,-0.6363,0,0,0,0,0,0,0,0,-0.6506,-0.6503,-0.6468,-0.6466,-0.6463,-0.6434,-0.6449,-0.6425,-0.641,-0.6429,-0.6407,-0.6407,-0.639,-0.6387,-0.6382,-0.6375,-0.6373,-0.6363,-0.6363,-0.6363,-0.6362,0,0,0,0,0,0,0,-0.6507,-0.6504,-0.6474,-0.6468,-0.6464,-0.6454,-0.645,-0.6444,-0.6415,-0.6427,-0.6424,-0.642,-0.6388,-0.6383,-0.638,-0.6373,-0.6363,-0.6363,-0.6362,-0.6362,-0.6372,-0.6373,0,0,0,0,0,0,-0.6513,-0.6506,-0.6475,-0.6473,-0.6483,-0.6454,-0.6449,-0.6444,-0.6415,-0.6409,-0.6421,-0.6418,-0.6384,-0.6382,-0.6379,-0.6389,-0.6363,-0.6362,-0.6361,-0.6371,-0.6372,-0.6373,0,0,0,0,0,0,-0.6514,-0.6511,-0.6477,-0.6488,-0.6483,-0.6455,-0.6449,-0.6443,-0.6438,-0.641,-0.6404,-0.642,-0.6384,-0.638,-0.6378,-0.6387,-0.6361,-0.6361,-0.637,-0.6372,-0.6373,-0.641,0,0,0,0,0,0,-0.6516,-0.6511,-0.6515,-0.6489,-0.6483,-0.6476,-0.6449,-0.6443,-0.6436,-0.6433,-0.6408,-0.6403,-0.6383,-0.6379,-0.6377,-0.6386,-0.636,-0.6369,-0.6371,-0.6372,-0.6408,-0.6413,-0.6417,0,0,0,0,0,-0.6517,-0.6528,-0.6516,-0.6512,-0.6487,-0.6477,-0.6473,-0.645,-0.6437,-0.6441,-0.6423,-0.6404,-0.6387,-0.6379,-0.6376,-0.6385,-0.6369,-0.6371,-0.6372,-0.6406,-0.6412,-0.6417,0,0,0,0,0,0,-0.6557,-0.6524,-0.651,-0.6513,-0.6498,-0.647,-0.6474,-0.6457,-0.6445,-0.6443,-0.6414,-0.6409,-0.6409,-0.6397,-0.6389,-0.6393,-0.6375,-0.6376,-0.6402,-0.6407,-0.6411,-0.6414,-0.6359,0,0,0,0,0,-0.6566,-0.656,-0.6532,-0.6537,-0.653,-0.6503,-0.6498,-0.6481,-0.6465,-0.6458,-0.644,-0.6425,-0.6416,-0.641,-0.6401,-0.6406,-0.64,-0.641,-0.6415,-0.6418,-0.642,-0.6421,-0.6426,-0.6379,-0.6379,-0.6379,0,0,-0.6584,-0.6566,-0.6564,-0.6544,-0.6531,-0.6525,-0.6498,-0.6494,-0.649,-0.6457,-0.6454,-0.644,-0.6421,-0.6422,-0.6422,-0.6412,-0.6431,-0.6421,-0.6424,-0.6423,-0.6423,-0.6428,-0.6432,-0.638,-0.638,-0.638,0,0,-0.6616,-0.6601,-0.6603,-0.659,-0.657,-0.6552,-0.6552,-0.6527,-0.6516,-0.6512,-0.6488,-0.6482,-0.6467,-0.6455,-0.6447,-0.6472,-0.6454,-0.6469,-0.6492,-0.6493,-0.6497,-0.65,-0.6509,-0.6513,-0.6471,-0.6471,-0.6471,0,-0.6641,-0.6632,-0.6607,-0.6603,-0.6595,-0.6565,-0.6567,-0.6556,-0.6533,-0.6528,-0.6517,-0.6498,-0.6483,-0.648,-0.6487,-0.6481,-0.648,-0.6472,-0.6499,-0.6501,-0.6504,-0.6512,-0.6516,-0.6473,-0.6473,-0.6473,-0.6472,0,-0.6665,-0.6659,-0.6663,-0.6642,-0.6634,-0.6634,-0.6608,-0.6603,-0.6586,-0.6569,-0.6565,-0.6546,-0.6532,-0.653,-0.6514,-0.6525,-0.6519,-0.6504,-0.6485,-0.6511,-0.6518,-0.6521,-0.6476,-0.6475,-0.6475,-0.6474,0,0,-0.6721,-0.6685,-0.6687,-0.6677,-0.6652,-0.6646,-0.6644,-0.663,-0.6626,-0.6611,-0.6609,-0.6597,-0.6582,-0.6572,-0.6554,-0.6556,-0.6577,-0.654,-0.6539,-0.6547,-0.6587,-0.66,-0.6604,-0.6564,-0.6565,-0.6565,-0.6589,0,-0.6748,-0.6742,-0.6719,-0.672,-0.6714,-0.6685,-0.6683,-0.6667,-0.6651,-0.6644,-0.6626,-0.6618,-0.6599,-0.6593,-0.6593,-0.6574,-0.6584,-0.6572,-0.6562,-0.6562,-0.6568,-0.6607,-0.662,-0.6644,-0.6592,-0.6592,-0.6592,0,-0.6779,-0.6766,-0.6767,-0.6741,-0.6738,-0.6737,-0.6721,-0.6714,-0.6695,-0.6684,-0.6673,-0.6652,-0.6648,-0.663,-0.6623,-0.6616,-0.661,-0.66,-0.66,-0.6599,-0.6579,-0.6607,-0.6651,-0.6654,-0.6597,-0.6596,-0.6596,0,-0.682,-0.6802,-0.68,-0.6793,-0.6763,-0.6762,-0.675,-0.673,-0.6723,-0.6709,-0.6704,-0.669,-0.6683,-0.6673,-0.6649,-0.6638,-0.6645,-0.6625,-0.6635,-0.6636,-0.6639,-0.6639,-0.6682,-0.6634,-0.6634,-0.6634,-0.6634,0,-0.6853,-0.6855,-0.6818,-0.6817,-0.6818,-0.679,-0.6792,-0.6776,-0.6759,-0.6754,-0.6728,-0.6724,-0.6693,-0.6685,-0.6667,-0.6664,-0.6661,-0.6651,-0.6646,-0.6654,-0.6655,-0.665,-0.6648,-0.6635,-0.6635,-0.6635,-0.6635,0,-0.6899,-0.6875,-0.6871,-0.6842,-0.6835,-0.6837,-0.6813,-0.681,-0.6792,-0.6787,-0.6784,-0.6755,-0.6745,-0.672,-0.6703,-0.6691,-0.6693,-0.6684,-0.6699,-0.6696,-0.6708,-0.6707,-0.675,-0.6754,-0.6704,-0.6704,-0.6705,0,-0.6922,-0.6922,-0.6894,-0.6889,-0.6877,-0.6869,-0.6861,-0.6834,-0.6826,-0.6805,-0.6805,-0.6792,-0.6781,-0.6765,-0.6743,-0.673,-0.6721,-0.6736,-0.6718,-0.6726,-0.6721,-0.6721,-0.6721,-0.674,-0.6741,-0.6742,-0.6742,0,-0.6965,-0.6953,-0.6942,-0.6928,-0.6919,-0.6906,-0.6892,-0.6889,-0.6858,-0.6851,-0.684,-0.6831,-0.6813,-0.6801,-0.6784,-0.6771,-0.6751,-0.6748,-0.6749,-0.6757,-0.6766,-0.6762,-0.671,-0.6747,-0.6747,-0.6746,-0.6746,-0.6746,-0.7,-0.6999,-0.6979,-0.6968,-0.6954,-0.6941,-0.6937,-0.6918,-0.6908,-0.6892,-0.6876,-0.6866,-0.6847,-0.6822,-0.681,-0.6802,-0.6792,-0.6795,-0.6795,-0.6796,-0.68,-0.6767,-0.6799,-0.6799,-0.6798,-0.6798,-0.6798,0,-0.7042,-0.7027,-0.7017,-0.6998,-0.6989,-0.6971,-0.6954,-0.6948,-0.694,-0.6923,-0.6912,-0.6899,-0.6887,-0.6863,-0.6849,-0.6847,-0.6837,-0.6844,-0.6844,-0.6841,-0.6809,-0.6809,-0.6852,-0.6852,-0.6852,-0.6852,-0.6852,-0.6852,-0.7063,-0.706,-0.7045,-0.7034,-0.7019,-0.701,-0.7001,-0.6989,-0.6976,-0.6962,-0.6952,-0.6936,-0.6917,-0.6901,-0.6888,-0.6882,-0.6878,-0.6887,-0.6878,-0.6848,-0.6843,-0.6839,-0.6839,-0.6886,-0.6886,-0.691,-0.691,-0.6911]},{"header":{"parameterUnit":"m.s-1","parameterCategory":1,"la1":30.2991,"la2":30.254,"lo1":-89.0895,"lo2":-89.0444,"dy":0.0017,"dx":0.0017,"nx":28,"ny":28,"refTime":"2024-12-31T03:00:00:Z","depth":0,"parameterNumber":3,"parameterNumberName":"V-component_of_WINDS"},"data":[0,0,0,0,0,0,0,0,0,0,0,0,0,0,0,0,0,0,0,0,0,0,0,0,0,0,0,0,0,0,0,0,0,0,0,0,0,0,0,0,0,0,0,0,0,0,0,0,0,0,0,0,0,0,0,0,0,0,-3.0514,-3.0515,0,-3.0562,-3.0562,-3.0563,-3.0562,-3.0561,-3.0561,-3.056,-3.0605,-3.0607,-3.0609,0,0,0,0,0,0,0,0,0,0,0,0,0,-3.0421,-3.0423,-3.0514,-3.0515,-3.0515,-3.0561,-3.0562,-3.0563,-3.0562,-3.0561,-3.0561,-3.056,-3.0605,-3.0607,-3.0609,0,0,0,0,0,0,0,0,0,0,0,0,0,-3.0464,-3.0424,-3.0514,-3.0521,-3.0522,-3.0561,-3.0562,-3.0563,-3.0562,-3.0561,-3.056,-3.0559,-3.0604,-3.0606,-3.0609,-3.0644,0,0,-3.0617,-3.0618,0,0,0,0,0,0,0,0,-3.0462,-3.0468,-3.0519,-3.052,-3.0522,-3.0555,-3.0546,-3.059,-3.0562,-3.0547,-3.056,-3.0559,-3.0589,-3.0593,-3.0604,-3.0646,-3.0648,-3.0617,-3.0619,-3.062,-3.0621,0,0,0,0,0,0,0,-3.0459,-3.0466,-3.0533,-3.052,-3.0521,-3.0521,-3.0526,-3.0554,-3.0572,-3.0548,-3.0548,-3.0554,-3.0589,-3.0601,-3.0605,-3.0649,-3.0617,-3.062,-3.0621,-3.0622,-3.0724,-3.0725,0,0,0,0,0,0,-3.0455,-3.0463,-3.0531,-3.0534,-3.0489,-3.0523,-3.0529,-3.0545,-3.0572,-3.0575,-3.0555,-3.0554,-3.0597,-3.0602,-3.0606,-3.0651,-3.062,-3.0623,-3.0624,-3.0723,-3.0725,-3.0726,0,0,0,0,0,0,-3.0453,-3.0461,-3.0529,-3.0499,-3.0507,-3.0526,-3.0544,-3.0547,-3.0558,-3.0577,-3.058,-3.0563,-3.0596,-3.0602,-3.0635,-3.0652,-3.0624,-3.0626,-3.0722,-3.0724,-3.0725,-3.0739,0,0,0,0,0,0,-3.045,-3.046,-3.0474,-3.0499,-3.0509,-3.0559,-3.0545,-3.0548,-3.0563,-3.0562,-3.0586,-3.0589,-3.0596,-3.0631,-3.0638,-3.0655,-3.0628,-3.072,-3.0723,-3.0725,-3.0737,-3.0741,-3.0744,0,0,0,0,0,-3.0447,-3.0475,-3.0475,-3.0483,-3.0527,-3.0559,-3.0565,-3.0574,-3.0565,-3.0579,-3.0591,-3.0588,-3.0649,-3.0635,-3.0642,-3.0661,-3.0719,-3.0722,-3.0724,-3.0735,-3.074,-3.0744,0,0,0,0,0,0,-3.045,-3.0478,-3.0479,-3.0516,-3.0535,-3.0559,-3.0577,-3.0578,-3.06,-3.0598,-3.0606,-3.0612,-3.0645,-3.0656,-3.0639,-3.0697,-3.0683,-3.0687,-3.0689,-3.0693,-3.0697,-3.0694,-3.0631,0,0,0,0,0,-3.0455,-3.048,-3.0503,-3.0533,-3.0544,-3.0559,-3.0573,-3.0578,-3.0598,-3.0606,-3.0621,-3.064,-3.0664,-3.0679,-3.0701,-3.0738,-3.0744,-3.0754,-3.0758,-3.0761,-3.0764,-3.0786,-3.0792,-3.0734,-3.0734,-3.0734,0,0,-3.0466,-3.0484,-3.0499,-3.0535,-3.055,-3.0576,-3.0566,-3.0592,-3.0611,-3.061,-3.0643,-3.0654,-3.0676,-3.0712,-3.0728,-3.0722,-3.0782,-3.0764,-3.0766,-3.0768,-3.0789,-3.0795,-3.08,-3.0736,-3.0735,-3.0735,0,0,-3.0498,-3.0514,-3.0543,-3.0559,-3.0584,-3.0594,-3.0601,-3.0625,-3.0634,-3.0667,-3.0667,-3.0689,-3.0729,-3.0745,-3.0758,-3.0799,-3.0797,-3.0805,-3.0824,-3.0845,-3.085,-3.0854,-3.087,-3.0875,-3.0809,-3.0809,-3.0809,0,-3.0508,-3.0547,-3.0557,-3.0585,-3.06,-3.0602,-3.0631,-3.0646,-3.0676,-3.0687,-3.068,-3.0731,-3.0746,-3.0786,-3.0796,-3.0806,-3.0815,-3.0803,-3.0849,-3.0853,-3.0857,-3.0872,-3.0878,-3.081,-3.081,-3.081,-3.081,0,-3.0559,-3.0586,-3.0605,-3.0637,-3.0655,-3.0683,-3.0696,-3.0713,-3.0717,-3.0728,-3.0762,-3.078,-3.0807,-3.0816,-3.0819,-3.0857,-3.0853,-3.0847,-3.0834,-3.0863,-3.0878,-3.0883,-3.0811,-3.0811,-3.0811,-3.081,0,0,-3.0594,-3.0632,-3.0639,-3.0654,-3.0683,-3.0703,-3.0731,-3.0759,-3.0774,-3.0795,-3.0819,-3.0854,-3.0849,-3.0864,-3.0869,-3.0887,-3.092,-3.0879,-3.088,-3.0888,-3.0965,-3.0971,-3.0977,-3.0919,-3.092,-3.0921,-3.0964,0,-3.0631,-3.0683,-3.0693,-3.0738,-3.0764,-3.0766,-3.0791,-3.081,-3.0821,-3.0844,-3.0855,-3.0881,-3.0872,-3.0881,-3.0899,-3.0912,-3.0936,-3.0909,-3.0942,-3.0943,-3.0938,-3.0984,-3.099,-3.1029,-3.0969,-3.097,-3.0971,0,-3.0681,-3.0706,-3.0754,-3.078,-3.0791,-3.0813,-3.0841,-3.0862,-3.0885,-3.0892,-3.0909,-3.0913,-3.0942,-3.0926,-3.0967,-3.0949,-3.0962,-3.0971,-3.0972,-3.0977,-3.096,-3.0992,-3.1042,-3.1049,-3.098,-3.0979,-3.0978,0,-3.0704,-3.0749,-3.0784,-3.0797,-3.0828,-3.0844,-3.0857,-3.0879,-3.0896,-3.0919,-3.093,-3.0955,-3.097,-3.0989,-3.0999,-3.0987,-3.104,-3.1025,-3.1047,-3.1046,-3.1058,-3.1058,-3.1113,-3.1065,-3.1065,-3.1065,-3.1065,0,-3.0745,-3.0775,-3.0796,-3.0817,-3.0851,-3.0861,-3.0894,-3.0907,-3.0926,-3.095,-3.0953,-3.0975,-3.0986,-3.101,-3.1017,-3.1051,-3.1057,-3.1063,-3.1065,-3.1064,-3.1063,-3.1074,-3.1072,-3.1066,-3.1066,-3.1066,-3.1065,0,-3.0778,-3.0792,-3.0831,-3.0858,-3.0866,-3.0889,-3.0912,-3.0933,-3.0944,-3.0975,-3.0982,-3.1,-3.1028,-3.104,-3.1074,-3.1079,-3.1118,-3.1117,-3.1111,-3.1112,-3.1134,-3.1132,-3.1199,-3.1209,-3.1153,-3.1153,-3.1154,0,-3.0804,-3.0827,-3.0857,-3.0875,-3.0889,-3.0916,-3.0934,-3.0945,-3.0964,-3.0992,-3.101,-3.1038,-3.1062,-3.1107,-3.1122,-3.1148,-3.1149,-3.1171,-3.1153,-3.1152,-3.1151,-3.1151,-3.1154,-3.1174,-3.1175,-3.1175,-3.1176,0,-3.0849,-3.0855,-3.0882,-3.0911,-3.0933,-3.0956,-3.0978,-3.0992,-3.1007,-3.1027,-3.1057,-3.1076,-3.1112,-3.114,-3.1168,-3.1181,-3.1181,-3.1181,-3.1188,-3.1188,-3.1184,-3.1188,-3.1122,-3.118,-3.1179,-3.1179,-3.1179,-3.1179,-3.088,-3.0901,-3.0927,-3.0956,-3.0975,-3.0996,-3.1018,-3.1033,-3.1059,-3.109,-3.1095,-3.1127,-3.115,-3.1187,-3.1202,-3.1227,-3.1221,-3.123,-3.1233,-3.1236,-3.1238,-3.1179,-3.1231,-3.1231,-3.1231,-3.1231,-3.1231,0,-3.0926,-3.0943,-3.0971,-3.1003,-3.1027,-3.1026,-3.1051,-3.1071,-3.11,-3.1122,-3.1146,-3.1181,-3.1209,-3.1227,-3.1255,-3.1272,-3.1273,-3.1279,-3.1279,-3.1282,-3.124,-3.1233,-3.1278,-3.1278,-3.1278,-3.1278,-3.1278,-3.1278,-3.0954,-3.0991,-3.1001,-3.1047,-3.1064,-3.1097,-3.1112,-3.1132,-3.1149,-3.1189,-3.1213,-3.1225,-3.1246,-3.1276,-3.1302,-3.1306,-3.1317,-3.1324,-3.1328,-3.1289,-3.1285,-3.128,-3.1273,-3.1326,-3.1326,-3.1368,-3.1368,-3.1369]}]]